Location: B�rgermoos
(47.6500°N, 9.0667°E)
Time: 18:29:18
(UTC+00:00)

A-11 Canister half - Pass Details

Date: 07 August 2021
Orbit: 1526 x 1683 km, 47.3° (Epoch: 20 September)

Event Time Altitude Azimuth Distance (km) Brightness Sun altitude
Rises 10:01:14 0° 242° (WSW) 4,924 11.6 53.8°
Reaches altitude 10° 10:04:23 10° 241° (WSW) 3,941 11.2 54.1°
Maximum altitude 10:14:30 74° 159° (SSE) 1,734 11.1 55.0°
Drops below altitude 10° 10:24:30 10° 77° (ENE) 3,900 11.4 55.9°
Sets 10:27:36 0° 76° (ENE) 4,870 11.7 56.1°
